Location: Marsån
(66.4167°N, 22.2833°E)
Time: 10:29:21
(UTC+00:00)

CZ-2D R/B - Pass Details

Date: 24 February 2024
Orbit: 790 x 844 km, 98.8° (Epoch: 15 April)

Event Time Altitude Azimuth Distance (km) Brightness Sun altitude
Rises 22:31:14 0° 18° (NNE) 3,354 6.2 -32.9°
Reaches altitude 10° 22:34:54 10° 44° (NE) 2,405 5.0 -32.9°
Enters shadow 22:37:26 14° 73° (ENE) 2,136 4.4 -32.9°
